Weather History for LTBA - February, 2013

Change the Weather History Date:

Sunday, February 17, 2013

  Actual Average Record
Temperature  
Mean Temperature 42 °F -  
Max Temperature 45 °F 49 °F 57 °F (2014)
Min Temperature 39 °F 38 °F 28 °F (2004)
Degree Days  
Heating Degree Days 23    
Moisture  
Dew Point 29 °F    
Average Humidity 60    
Maximum Humidity 65    
Minimum Humidity 45    
Precipitation  
Precipitation 0.00 in - - ()
Sea Level Pressure  
Sea Level Pressure 30.14 in    
Wind  
Wind Speed 8 mph ()    
Max Wind Speed 16 mph    
Max Gust Speed 23 mph    
Visibility 6.2 miles    
Events      
Averages and records for this station are not official NWS values.
T = Trace of Precipitation, MM = Missing Value Source: Averaged Metar Reports

Daily Weather History Graph

Daily Weather History Graph

Search for Another Location

Airport or City:

Trip Planner

Search our weather history database for the weather conditions in past years. The results will help you decide how hot, cold, wet, or windy it might be!

Date:

Astronomy

Feb. 17, 2013 Rise Set
Actual Time 6:56 AM EET 5:41 PM EET
Civil Twilight 6:28 AM EET 6:09 PM EET
Nautical Twilight 5:56 AM EET 6:41 PM EET
Astronomical Twilight 5:24 AM EET 7:13 PM EET
Moon 10:32 AM EET (2/17) 12:22 AM EET (2/17)
Length of Visible Light 11h 41m
Length of Day
10h 45m
Waxing Crescent, 46% of the Moon is Illuminated
Feb 17
Waxing Crescent
Feb 17
First Quarter
Feb 25
Full
Mar 4
Last Quarter
Mar 11
New

Hourly Weather History & Observations

Time (EET) Temp. Windchill Dew Point Humidity Pressure Visibility Wind Dir Wind Speed Gust Speed Precip Events Conditions
12:20 AM 41.0 °F 35.8 °F 30.2 °F 65% 30.15 in 6.2 mi NNE 8.1 mph - N/A   Mostly Cloudy
12:50 AM 41.0 °F 35.8 °F 28.4 °F 61% 30.15 in 6.2 mi NNE 8.1 mph - N/A   Mostly Cloudy
1:20 AM 41.0 °F 36.4 °F 28.4 °F 61% 30.15 in 6.2 mi NNE 6.9 mph - N/A   Mostly Cloudy
1:50 AM 41.0 °F 37.1 °F 28.4 °F 61% 30.15 in 6.2 mi NNE 5.8 mph - N/A   Scattered Clouds
2:00 AM 40 °F - 28 °F 52% 30.18 in 6 mi NNE 5.8 mph - -   Partly Cloudy
2:20 AM 41.0 °F 36.4 °F 28.4 °F 61% 30.15 in 6.2 mi NNE 6.9 mph - N/A   Scattered Clouds
2:50 AM 39.2 °F 33.6 °F 28.4 °F 65% 30.15 in 6.2 mi NE 8.1 mph - N/A   Scattered Clouds
3:20 AM 39.2 °F 35.0 °F 28.4 °F 65% 30.15 in 6.2 mi NE 5.8 mph - N/A   Mostly Cloudy
3:50 AM 39.2 °F 33.6 °F 28.4 °F 65% 30.15 in 6.2 mi NNE 8.1 mph - N/A   Mostly Cloudy
4:20 AM 39.2 °F 35.0 °F 28.4 °F 65% 30.15 in 6.2 mi NE 5.8 mph - N/A   Mostly Cloudy
4:50 AM 39.2 °F 34.2 °F 28.4 °F 65% 30.15 in 6.2 mi ENE 6.9 mph - N/A   Mostly Cloudy
5:20 AM 39.2 °F 34.2 °F 28.4 °F 65% 30.15 in 6.2 mi NNE 6.9 mph - N/A   Mostly Cloudy
5:50 AM 39.2 °F 33.6 °F 28.4 °F 65% 30.15 in 6.2 mi NNE 8.1 mph - N/A   Mostly Cloudy
6:20 AM 39.2 °F 33.6 °F 28.4 °F 65% 30.15 in 6.2 mi NNE 8.1 mph - N/A   Mostly Cloudy
6:50 AM 41.0 °F 36.4 °F 28.4 °F 61% 30.15 in 6.2 mi NNE 6.9 mph - N/A   Mostly Cloudy
7:20 AM 41.0 °F 37.1 °F 28.4 °F 61% 30.15 in 6.2 mi NE 5.8 mph - N/A   Mostly Cloudy
7:50 AM 41.0 °F 37.1 °F 28.4 °F 61% 30.15 in 6.2 mi NE 5.8 mph - N/A   Mostly Cloudy
8:00 AM 40 °F - 29 °F 53% 30.17 in 6 mi NE 5.8 mph - -   Partly Cloudy
8:20 AM 41.0 °F 35.8 °F 28.4 °F 61% 30.15 in 6.2 mi NE 8.1 mph - N/A   Mostly Cloudy
8:50 AM 42.8 °F 39.3 °F 28.4 °F 57% 30.15 in 6.2 mi Variable 5.8 mph - N/A   Mostly Cloudy
9:20 AM 41.0 °F 35.2 °F 28.4 °F 61% 30.15 in 6.2 mi NNE 9.2 mph - N/A   Mostly Cloudy
9:50 AM 41.0 °F 35.2 °F 30.2 °F 65% 30.15 in 6.2 mi NNE 9.2 mph - N/A   Mostly Cloudy
10:20 AM 42.8 °F 37.0 °F 30.2 °F 61% 30.15 in 6.2 mi NE 10.4 mph - N/A   Mostly Cloudy
10:50 AM 42.8 °F 38.6 °F 30.2 °F 61% 30.15 in 6.2 mi ENE 6.9 mph - N/A   Mostly Cloudy
11:20 AM 42.8 °F 39.3 °F 30.2 °F 61% 30.15 in 6.2 mi NE 5.8 mph - N/A   Mostly Cloudy
11:50 AM 42.8 °F 38.0 °F 28.4 °F 57% 30.15 in 6.2 mi NE 8.1 mph - N/A   Mostly Cloudy
12:20 PM 42.8 °F 38.0 °F 30.2 °F 61% 30.12 in 6.2 mi NE 8.1 mph - N/A   Mostly Cloudy
12:50 PM 42.8 °F 38.6 °F 30.2 °F 61% 30.12 in 6.2 mi Variable 6.9 mph - N/A   Mostly Cloudy
1:20 PM 42.8 °F 37.5 °F 30.2 °F 61% 30.12 in 6.2 mi NNE 9.2 mph - N/A   Mostly Cloudy
1:50 PM 42.8 °F 37.0 °F 28.4 °F 57% 30.12 in 6.2 mi North 10.4 mph - N/A   Mostly Cloudy
2:00 PM 43 °F - 29 °F 45% 30.14 in 6 mi North 10.4 mph - -   Partly Cloudy
2:20 PM 44.6 °F 38.8 °F 30.2 °F 57% 30.12 in 6.2 mi North 11.5 mph - N/A   Mostly Cloudy
2:50 PM 42.8 °F 35.8 °F 30.2 °F 61% 30.12 in 6.2 mi North 13.8 mph - N/A   Mostly Cloudy
3:20 PM 44.6 °F 37.4 °F 30.2 °F 57% 30.09 in 6.2 mi North 16.1 mph - N/A   Mostly Cloudy
3:50 PM 42.8 °F 35.8 °F 28.4 °F 57% 30.12 in 6.2 mi NNE 13.8 mph - N/A   Mostly Cloudy
4:20 PM 42.8 °F 35.1 °F 30.2 °F 61% 30.09 in 6.2 mi NNE 16.1 mph - N/A   Mostly Cloudy
4:50 PM 42.8 °F 36.6 °F 28.4 °F 57% 30.12 in 6.2 mi NE 11.5 mph - N/A   Mostly Cloudy
5:20 PM 42.8 °F 36.6 °F 30.2 °F 61% 30.09 in 6.2 mi NNE 11.5 mph - N/A   Mostly Cloudy
5:50 PM 42.8 °F 37.0 °F 30.2 °F 61% 30.12 in 6.2 mi NNE 10.4 mph - N/A   Mostly Cloudy
6:20 PM 42.8 °F 37.5 °F 30.2 °F 61% 30.12 in 6.2 mi NE 9.2 mph - N/A   Mostly Cloudy
6:50 PM 41.0 °F 33.9 °F 28.4 °F 61% 30.12 in 6.2 mi NNE 12.7 mph - N/A   Mostly Cloudy
7:20 PM 42.8 °F 37.5 °F 28.4 °F 57% 30.12 in 6.2 mi NE 9.2 mph - N/A   Mostly Cloudy
7:50 PM 42.8 °F 37.5 °F 30.2 °F 61% 30.12 in 6.2 mi NE 9.2 mph - N/A   Mostly Cloudy
8:00 PM 42 °F - 28 °F 46% 30.14 in 6 mi NE 9.2 mph - -   Partly Cloudy
8:20 PM 42.8 °F 37.5 °F 28.4 °F 57% 30.12 in 6.2 mi NNE 9.2 mph - N/A   Mostly Cloudy
8:50 PM 42.8 °F 36.2 °F 30.2 °F 61% 30.12 in 6.2 mi NNE 12.7 mph - N/A   Mostly Cloudy
9:20 PM 42.8 °F 36.6 °F 30.2 °F 61% 30.12 in 6.2 mi NNE 11.5 mph - N/A   Mostly Cloudy
9:50 PM 42.8 °F 36.6 °F 30.2 °F 61% 30.12 in 6.2 mi NNE 11.5 mph - N/A   Mostly Cloudy
10:20 PM 42.8 °F 36.6 °F 30.2 °F 61% 30.12 in 5.0 mi NNE 11.5 mph - N/A   Mostly Cloudy
10:50 PM 42.8 °F 37.0 °F 30.2 °F 61% 30.12 in 6.2 mi NNE 10.4 mph - N/A   Mostly Cloudy
11:20 PM 41.0 °F 35.2 °F 28.4 °F 61% 30.12 in 6.2 mi NNE 9.2 mph - N/A   Mostly Cloudy
11:50 PM 42.8 °F 36.6 °F 28.4 °F 57% 30.12 in 6.2 mi NNE 11.5 mph 23.0 mph N/A   Mostly Cloudy